Weather in Pochep

Russia / Bryansk Oblast     52°55′44″N   33°27′15″E
temp.,
°C
wind,
m/s
gust,
m/s
humid.,
%
clouds,
%
prec.,
mm/h
press.,
hPa
HPBL,
m
16 april, fri
fri1600:00+9ene227645 0.0 101210
03:00+8ne348943 0.1 101259
06:00+7ese410925 0.8 1013241
09:00+10se69755 0.8 1014734
12:00+12ese695866 0.2 10141645
15:00+13ese795956 0.8 10141517
18:00+12se58675 0.3 10141040
21:00+8ese348427 0.3 101668
17 april, sat
sat1700:00+6e349175 0.0 101684
03:00+6e369011 0.1 1017169
06:00+5e36935 0.0 1018127
09:00+9ese23766 0.0 1018397
12:00+11ne3369100 0.3 1017901
15:00+8wsw3594100 6.7 1016206
18:00+8w3490100 0.6 1016314
21:00+8nne1493100 0.8 1015261
18 april, sun
sun1800:00+7ene4894100 0.1 1014505
03:00+6ne5993100 0.1 1014475
06:00+4e71196100 0.1 1015665
09:00+5e71294100 0.5 1016927
12:00+7e71183100 0.5 10171032
15:00+8ese5876100 1.2 10171048
18:00+8e3880100 0.4 1017916
21:00+6ne238799 0.4 101849
19 april, mon
mon1900:00+6ne4892100 0.1 1018484
03:00+6nne5892100 0.3 1017790
06:00+6nne5991100 0.2 1017623
09:00+6ne5892100 1.5 1017883
12:00+8ene4783100 0.5 10161020
15:00+10e236575 1.4 1015952
18:00+10e237139 1.6 1014572
21:00+6e35865 1.8 101469
20 april, tue
tue2000:00+7ene41092100 0.0 1013328
03:00+7e6149187 0.3 1012438
06:00+7ene71493100 0.0 1009635
09:00+6ne101893100 3.1 1005981
12:00+6ne111992100 6.4 10001004
15:00+7ene91791100 13.4 9961079
18:00+8ene489698 0.6 994330
21:00+8e3495100 1.0 99563